This is the latest recevied weather packets stored in our database for station/object PY2PWL-13. If no packets are shown the sender has not sent any weather packets the latest 10 day(s).
| Time | Temp. | Humidity | Pressure | Rain* | Wind** | Luminosity | Snow |
|---|---|---|---|---|---|---|---|
| 1788151429 | 81° F | 50% | 758.8 mmHg | - | - | - | - |
| 1788149629 | 81° F | 50% | 759.4 mmHg | - | - | - | - |
| 1788147829 | 81° F | 49% | 760 mmHg | - | - | - | - |
| 1788146029 | 82° F | 49% | 760.1 mmHg | - | - | - | - |
| 1788144229 | 82° F | 49% | 759.9 mmHg | - | - | - | - |
| 1788142429 | 83° F | 48% | 759.7 mmHg | - | - | - | - |
| 1788140629 | 83° F | 48% | 759.3 mmHg | - | - | - | - |
| 1788138829 | 84° F | 48% | 759.4 mmHg | - | - | - | - |
| 1788137029 | 84° F | 47% | 759.4 mmHg | - | - | - | - |
| 1788135229 | 84° F | 47% | 759.5 mmHg | - | - | - | - |
| 1788133429 | 86° F | 48% | 759.4 mmHg | - | - | - | - |
| 1788131629 | 86° F | 47% | 758.2 mmHg | - | - | - | - |
| 1788129829 | 87° F | 47% | 757.9 mmHg | - | - | - | - |
| 1788128029 | 88° F | 47% | 757.7 mmHg | - | - | - | - |
| 1788126229 | 88° F | 48% | 757.3 mmHg | - | - | - | - |
| 1788124430 | 89° F | 48% | 757 mmHg | - | - | - | - |
| 1788122629 | 90° F | 45% | 756.6 mmHg | - | - | - | - |
| 1788120829 | 91° F | 45% | 756.1 mmHg | - | - | - | - |
| 1788119029 | 91° F | 45% | 756.1 mmHg | - | - | - | - |
| 1788117228 | 92° F | 44% | 756 mmHg | - | - | - | - |
| 1788115430 | 92° F | 45% | 756.1 mmHg | - | - | - | - |
| 1788113629 | 93° F | 40% | 756.1 mmHg | - | - | - | - |
| 1788111829 | 94° F | 41% | 755.8 mmHg | - | - | - | - |
| 1788110029 | 93° F | 43% | 756.4 mmHg | - | - | - | - |
| 1788108228 | 94° F | 43% | 756.6 mmHg | - | - | - | - |
* Rain since midnight (hover to see other rain measurements)
** Current wind speed in m/s (hover to see current wind gust speed)